Simultaneous Nadir Overpasses (SNOs) Predictions

Prediction of SNOs between FY3D and NOAA-19 Satellite Orbit:

Table of predicted SNOs for the next 14.0 days since TLE Epoch: 3/7/2020
Index Date (FY3D) Time (FY3D) Lat,Lon (FY3D) SZA (FY3D ) Date (NOAA-19) Time (NOAA-19) Lat,Lon (NOAA-19) SZA (NOAA-19 ) Distance(km) Time Diff (sec)
1 03/10/2020 20:38:33 79.59,-163.62 85.25 03/10/2020 20:37:20 79.58,-163.52 85.27 2.10 73
2 03/10/2020 21:29:18 -79.60, 3.64 94.76 03/10/2020 21:28:26 -79.59, 3.74 94.76 2.25 52
3 03/10/2020 22:20:02 79.59, 171.04 85.21 03/10/2020 22:19:20 79.60, 171.17 85.23 3.13 42
4 03/10/2020 23:10:47 -79.59, -21.71 94.79 03/10/2020 23:10:26 -79.60, -21.57 94.79 2.89 21
5 03/11/2020 00:01:31 79.58, 145.69 85.18 03/11/2020 00:01:21 79.59, 145.57 85.21 2.51 10
6 03/11/2020 00:52:16 -79.59, -47.05 94.83 03/11/2020 00:52:27 -79.59, -47.17 94.82 2.48 11
7 03/11/2020 01:43:00 79.58, 120.34 85.15 03/11/2020 01:43:21 79.61, 120.27 85.17 3.61 21
8 03/11/2020 02:33:45 -79.59, -72.40 94.86 03/11/2020 02:34:27 -79.61, -72.48 94.85 3.31 42
9 03/11/2020 03:24:30 79.61, 94.72 85.17 03/11/2020 03:25:22 79.60, 94.67 85.15 1.51 52
10 03/11/2020 04:15:15 -79.62, -98.02 94.84 03/11/2020 04:16:28 -79.60, -98.08 94.87 1.90 73




NCC Satellite Simultaneous Nadir Overpasses (SNOs) Prediction Service
